QPF
0.09 0.08 0.07 0.06 0.05 0.04 0.05 0.07 0.10 0.12 0.12 0.11 0.08 0.06 0.07 0.08 0.09 0.07 0.06 0.05 0.03 0.03 0.03 0.03 0.04 0.04 0.04 0.04 0.04 0.05 0.05 0.05 0.05 0.06 0.08 0.10 0.12 0.12
0.07 0.07 0.07 0.06 0.06 0.05 0.05 0.05 0.09 0.12 0.11 0.08 0.08 0.09 0.09 0.09 0.09 0.06 0.06 0.06 0.05 0.05 0.05 0.06 0.07 0.06 0.05 0.04 0.03 0.03 0.03 0.03 0.04 0.04 0.04 0.05 0.07 0.09
0.05 0.06 0.07 0.09 0.08 0.07 0.05 0.06 0.08 0.11 0.12 0.10 0.09 0.09 0.09 0.09 0.07 0.05 0.06 0.06 0.08 0.09 0.07 0.06 0.05 0.04 0.03 0.03 0.04 0.04 0.03 0.03 0.04 0.04 0.05 0.06 0.07 0.08
0.05 0.05 0.04 0.05 0.05 0.05 0.05 0.06 0.08 0.09 0.09 0.09 0.09 0.09 0.08 0.07 0.07 0.06 0.07 0.08 0.09 0.08 0.04 0.03 0.02 0.02 0.02 0.02 0.02 0.02 0.03 0.03 0.04 0.04 0.05 0.06 0.07 0.08
0.04 0.04 0.04 0.04 0.04 0.05 0.05 0.06 0.06 0.06 0.07 0.08 0.07 0.08 0.07 0.08 0.09 0.10 0.10 0.09 0.06 0.04 0.03 0.03 0.03 0.03 0.02 0.02 0.02 0.02 0.03 0.04 0.04 0.05 0.06 0.06 0.06 0.07
0.05 0.05 0.05 0.05 0.05 0.05 0.04 0.04 0.05 0.05 0.06 0.07 0.07 0.07 0.07 0.07 0.07 0.07 0.07 0.05 0.03 0.02 0.03 0.03 0.03 0.02 0.02 0.02 0.02 0.02 0.03 0.03 0.03 0.04 0.05 0.05 0.05 0.05
0.05 0.04 0.04 0.04 0.04 0.04 0.03 0.03 0.04 0.04 0.04 0.04 0.04 0.03 0.03 0.03 0.03 0.04 0.04 0.03 0.03 0.01 0.02 0.02 0.01 0.01 0.01 0.01 0.01 0.01 0.01 0.02 0.03 0.03 0.04 0.05 0.05 0.05
0.07 0.06 0.05 0.05 0.05 0.04 0.04 0.04 0.04 0.04 0.03 0.03 0.03 0.02 0.02 0.03 0.04 0.04 0.04 0.03 0.03 0.02 0.02 0.01 0.01 0.01 0.01 0.01 0.02 0.02 0.02 0.03 0.04 0.04 0.04 0.05 0.05 0.06
0.09 0.08 0.06 0.05 0.05 0.04 0.05 0.04 0.03 0.03 0.03 0.03 0.03 0.03 0.03 0.04 0.05 0.05 0.05 0.04 0.03 0.02 0.02 0.02 0.02 0.02 0.02 0.03 0.03 0.03 0.03 0.04 0.06 0.07 0.07 0.07 0.07 0.06
0.06 0.06 0.06 0.06 0.05 0.05 0.04 0.04 0.03 0.02 0.02 0.02 0.02 0.02 0.03 0.03 0.04 0.04 0.05 0.05 0.04 0.03 0.03 0.03 0.03 0.03 0.03 0.03 0.04 0.04 0.04 0.06 0.07 0.09 0.09 0.08 0.07 0.06
0.05 0.05 0.05 0.05 0.05 0.04 0.03 0.03 0.03 0.02 0.02 0.02 0.02 0.02 0.02 0.03 0.04 0.04 0.05 0.05 0.06 0.05 0.04 0.05 0.04 0.04 0.03 0.04 0.05 0.05 0.05 0.06 0.06 0.06 0.06 0.06 0.05 0.04
0.03 0.04 0.04 0.04 0.04 0.03 0.02 0.03 0.02 0.02 0.02 0.03 0.04 0.04 0.04 0.04 0.05 0.04 0.05 0.06 0.05 0.05 0.04 0.06 0.06 0.07 0.06 0.04 0.04 0.04 0.04 0.04 0.04 0.04 0.04 0.04 0.04 0.04
0.03 0.03 0.04 0.05 0.04 0.04 0.03 0.03 0.03 0.03 0.03 0.04 0.05 0.05 0.06 0.06 0.06 0.05 0.05 0.04 0.04 0.04 0.04 0.05 0.05 0.05 0.05 0.04 0.03 0.03 0.02 0.02 0.02 0.02 0.02 0.02 0.02 0.03
0.03 0.03 0.03 0.03 0.04 0.05 0.04 0.04 0.05 0.06 0.06 0.06 0.06 0.06 0.06 0.06 0.05 0.04 0.03 0.03 0.03 0.03 0.03 0.04 0.04 0.04 0.04 0.03 0.03 0.03 0.03 0.03 0.02 0.02 0.02 0.01 0.01 0.01
0.02 0.02 0.02 0.02 0.02 0.03 0.04 0.03 0.03 0.03 0.03 0.04 0.04 0.04 0.04 0.04 0.04 0.04 0.04 0.03 0.03 0.04 0.05 0.05 0.05 0.04 0.05 0.04 0.04 0.04 0.04 0.03 0.03 0.02 0.03 0.02 0.01 0.02
0.01 0.02 0.02 0.01 0.02 0.02 0.02 0.02 0.03 0.04 0.05 0.05 0.04 0.04 0.04 0.04 0.04 0.03 0.03 0.03 0.03 0.04 0.05 0.05 0.05 0.05 0.05 0.04 0.04 0.03 0.03 0.02 0.02 0.03 0.03 0.03 0.03 0.03
0.02 0.01 0.02 0.02 0.03 0.03 0.05 0.06 0.07 0.06 0.04 0.03 0.03 0.03 0.03 0.02 0.01 0.01 0.01 0.01 0.01 0.01 0.01 0.01 0.01 0.01 0.01 0.02 0.02 0.02 0.02 0.02 0.02 0.02 0.02 0.03 0.03 0.03
0.03 0.02 0.03 0.03 0.04 0.04 0.04 0.03 0.02 0.01 0.01 0.01 0.01 0.01 0.01 0.01 0.00 0.00 0.00 0.00 0.00 0.00 0.00 0.01 0.01 0.01 0.01 0.01 0.01 0.01 0.01 0.01 0.02 0.02 0.02 0.02 0.02 0.03
0.03 0.03 0.03 0.03 0.02 0.01 0.01 0.01 0.01 0.01 0.00 0.00 0.00 0.01 0.01 0.01 0.01 0.01 0.01 0.01 0.01 0.00 0.00 0.00 0.01 0.01 0.01 0.01 0.00 0.00 0.01 0.02 0.02 0.03 0.03 0.02 0.02 0.02
0.02 0.01 0.01 0.01 0.00 0.00 0.00 0.00 0.01 0.00 0.01 0.01 0.01 0.01 0.01 0.01 0.01 0.01 0.01 0.01 0.01 0.01 0.01 0.01 0.01 0.01 0.01 0.01 0.01 0.01 0.00 0.01 0.01 0.02 0.02 0.02 0.02 0.02
0.01 0.01 0.01 0.01 0.01 0.01 0.01 0.01 0.01 0.01 0.01 0.01 0.01 0.01 0.01 0.01 0.01 0.01 0.01 0.01 0.01 0.01 0.01 0.01 0.01 0.01 0.01 0.01 0.01 0.01 0.00 0.00 0.00 0.01 0.01 0.02 0.02 0.02
0.01 0.01 0.01 0.01 0.01 0.01 0.01 0.01 0.01 0.01 0.01 0.01 0.01 0.02 0.02 0.02 0.02 0.02 0.02 0.02 0.02 0.02 0.02 0.02 0.02 0.02 0.02 0.02 0.02 0.02 0.01 0.01 0.00 0.00 0.01 0.01 0.01 0.02
0.01 0.01 0.01 0.01 0.01 0.02 0.02 0.02 0.02 0.02 0.01 0.01 0.01 0.01 0.02 0.02 0.02 0.02 0.02 0.03 0.04 0.04 0.04 0.04 0.03 0.03 0.02 0.02 0.02 0.02 0.01 0.01 0.01 0.01 0.01 0.00 0.00 0.00
MSLP
1016.14 1016.13 1016.19 1016.30 1016.42 1016.51 1016.50 1016.38 1016.13 1015.76 1015.30 1014.80 1014.34 1013.97 1013.74 1013.66 1013.74 1013.95 1014.26 1014.61 1014.94 1015.22 1015.41 1015.50 1015.49 1015.41 1015.27 1015.12 1014.97 1014.86 1014.81 1014.81 1014.88 1015.01 1015.20 1015.44 1015.74 1016.09
1016.03 1016.00 1016.03 1016.11 1016.19 1016.24 1016.20 1016.06 1015.80 1015.43 1015.01 1014.56 1014.17 1013.87 1013.72 1013.72 1013.87 1014.14 1014.49 1014.86 1015.20 1015.47 1015.64 1015.71 1015.67 1015.56 1015.41 1015.24 1015.09 1014.98 1014.92 1014.93 1015.01 1015.15 1015.34 1015.60 1015.90 1016.27
1016.12 1016.08 1016.08 1016.11 1016.14 1016.13 1016.04 1015.85 1015.57 1015.21 1014.82 1014.44 1014.12 1013.92 1013.86 1013.96 1014.20 1014.54 1014.94 1015.35 1015.71 1015.99 1016.16 1016.22 1016.18 1016.08 1015.93 1015.78 1015.64 1015.55 1015.51 1015.53 1015.61 1015.74 1015.93 1016.18 1016.48 1016.85
1016.36 1016.33 1016.32 1016.31 1016.29 1016.21 1016.06 1015.83 1015.52 1015.16 1014.79 1014.47 1014.23 1014.12 1014.17 1014.37 1014.69 1015.11 1015.57 1016.02 1016.41 1016.72 1016.91 1016.99 1016.99 1016.91 1016.80 1016.68 1016.58 1016.52 1016.50 1016.53 1016.61 1016.73 1016.91 1017.13 1017.41 1017.76
1016.71 1016.70 1016.70 1016.67 1016.61 1016.49 1016.28 1016.01 1015.67 1015.31 1014.96 1014.68 1014.51 1014.48 1014.61 1014.90 1015.30 1015.79 1016.30 1016.80 1017.24 1017.58 1017.81 1017.95 1017.99 1017.98 1017.92 1017.86 1017.81 1017.78 1017.79 1017.83 1017.90 1018.00 1018.15 1018.35 1018.59 1018.90
1017.10 1017.14 1017.16 1017.14 1017.07 1016.91 1016.68 1016.37 1016.01 1015.64 1015.31 1015.05 1014.93 1014.96 1015.15 1015.49 1015.95 1016.49 1017.05 1017.59 1018.07 1018.46 1018.75 1018.95 1019.07 1019.13 1019.15 1019.15 1019.16 1019.17 1019.20 1019.25 1019.31 1019.39 1019.51 1019.66 1019.87 1020.13
1017.47 1017.56 1017.62 1017.64 1017.58 1017.42 1017.18 1016.86 1016.49 1016.11 1015.78 1015.54 1015.44 1015.49 1015.71 1016.08 1016.56 1017.13 1017.72 1018.29 1018.81 1019.25 1019.60 1019.87 1020.07 1020.21 1020.31 1020.38 1020.44 1020.50 1020.55 1020.60 1020.66 1020.72 1020.81 1020.93 1021.09 1021.31
1017.75 1017.90 1018.02 1018.08 1018.06 1017.93 1017.70 1017.39 1017.02 1016.65 1016.32 1016.08 1015.97 1016.02 1016.24 1016.60 1017.08 1017.64 1018.23 1018.82 1019.36 1019.84 1020.25 1020.58 1020.85 1021.07 1021.24 1021.38 1021.50 1021.59 1021.67 1021.73 1021.78 1021.83 1021.89 1021.98 1022.11 1022.29
1017.92 1018.12 1018.30 1018.42 1018.45 1018.37 1018.18 1017.89 1017.54 1017.17 1016.84 1016.59 1016.47 1016.50 1016.68 1017.01 1017.46 1017.98 1018.55 1019.13 1019.68 1020.18 1020.62 1021.00 1021.33 1021.61 1021.84 1022.04 1022.20 1022.33 1022.42 1022.49 1022.54 1022.59 1022.64 1022.71 1022.82 1022.97
1017.98 1018.22 1018.45 1018.63 1018.71 1018.69 1018.54 1018.30 1017.98 1017.63 1017.31 1017.05 1016.91 1016.90 1017.04 1017.31 1017.70 1018.17 1018.70 1019.23 1019.76 1020.25 1020.71 1021.11 1021.47 1021.79 1022.06 1022.29 1022.48 1022.64 1022.75 1022.83 1022.89 1022.94 1022.99 1023.05 1023.15 1023.28
1017.94 1018.21 1018.48 1018.71 1018.85 1018.88 1018.79 1018.59 1018.32 1018.00 1017.69 1017.43 1017.27 1017.23 1017.32 1017.53 1017.85 1018.25 1018.70 1019.18 1019.66 1020.12 1020.55 1020.95 1021.31 1021.64 1021.92 1022.17 1022.38 1022.55 1022.68 1022.77 1022.84 1022.90 1022.96 1023.03 1023.12 1023.24
1017.85 1018.14 1018.43 1018.69 1018.88 1018.95 1018.91 1018.77 1018.54 1018.27 1017.99 1017.74 1017.57 1017.51 1017.55 1017.71 1017.96 1018.28 1018.66 1019.06 1019.47 1019.87 1020.26 1020.62 1020.96 1021.26 1021.54 1021.78 1021.99 1022.16 1022.30 1022.41 1022.49 1022.56 1022.63 1022.70 1022.80 1022.91
1017.74 1018.03 1018.34 1018.61 1018.82 1018.93 1018.94 1018.84 1018.67 1018.44 1018.20 1017.99 1017.84 1017.76 1017.78 1017.89 1018.08 1018.33 1018.62 1018.95 1019.28 1019.60 1019.92 1020.23 1020.51 1020.78 1021.03 1021.25 1021.45 1021.62 1021.75 1021.87 1021.96 1022.04 1022.12 1022.20 1022.29 1022.40
1017.63 1017.92 1018.22 1018.50 1018.71 1018.84 1018.88 1018.83 1018.70 1018.53 1018.35 1018.18 1018.06 1018.01 1018.02 1018.10 1018.24 1018.43 1018.66 1018.90 1019.15 1019.40 1019.64 1019.88 1020.10 1020.32 1020.53 1020.72 1020.89 1021.05 1021.18 1021.30 1021.39 1021.48 1021.56 1021.65 1021.74 1021.83
1017.54 1017.82 1018.10 1018.36 1018.56 1018.69 1018.75 1018.73 1018.66 1018.55 1018.43 1018.32 1018.25 1018.23 1018.25 1018.33 1018.45 1018.60 1018.77 1018.94 1019.12 1019.29 1019.47 1019.64 1019.80 1019.97 1020.13 1020.29 1020.44 1020.58 1020.71 1020.82 1020.91 1021.00 1021.08 1021.16 1021.24 1021.32
1017.45 1017.71 1017.97 1018.19 1018.37 1018.49 1018.55 1018.56 1018.52 1018.47 1018.42 1018.38 1018.37 1018.40 1018.46 1018.55 1018.67 1018.80 1018.93 1019.05 1019.18 1019.30 1019.41 1019.53 1019.65 1019.78 1019.91 1020.04 1020.17 1020.29 1020.40 1020.50 1020.59 1020.66 1020.73 1020.80 1020.86 1020.93
1017.36 1017.60 1017.81 1017.99 1018.13 1018.23 1018.28 1018.30 1018.31 1018.31 1018.32 1018.35 1018.41 1018.50 1018.60 1018.72 1018.85 1018.97 1019.09 1019.19 1019.29 1019.37 1019.45 1019.54 1019.63 1019.73 1019.84 1019.96 1020.07 1020.18 1020.27 1020.36 1020.43 1020.49 1020.55 1020.59 1020.64 1020.68
1017.26 1017.47 1017.64 1017.77 1017.86 1017.92 1017.96 1017.99 1018.02 1018.06 1018.13 1018.22 1018.34 1018.48 1018.64 1018.79 1018.94 1019.08 1019.20 1019.30 1019.39 1019.47 1019.54 1019.62 1019.71 1019.80 1019.90 1020.01 1020.11 1020.21 1020.29 1020.36 1020.41 1020.45 1020.48 1020.50 1020.52 1020.54
1017.14 1017.32 1017.44 1017.52 1017.56 1017.59 1017.61 1017.63 1017.68 1017.76 1017.87 1018.02 1018.19 1018.37 1018.57 1018.76 1018.93 1019.09 1019.22 1019.33 1019.43 1019.52 1019.61 1019.70 1019.80 1019.90 1020.01 1020.12 1020.21 1020.29 1020.36 1020.40 1020.43 1020.44 1020.44 1020.43 1020.43 1020.43
1017.02 1017.17 1017.25 1017.28 1017.28 1017.28 1017.28 1017.30 1017.36 1017.46 1017.60 1017.78 1017.98 1018.20 1018.42 1018.63 1018.82 1018.99 1019.14 1019.27 1019.39 1019.50 1019.61 1019.73 1019.85 1019.97 1020.08 1020.19 1020.28 1020.34 1020.38 1020.40 1020.39 1020.36 1020.33 1020.30 1020.27 1020.25
1016.92 1017.04 1017.08 1017.08 1017.06 1017.03 1017.02 1017.04 1017.10 1017.21 1017.37 1017.56 1017.78 1018.01 1018.23 1018.45 1018.65 1018.82 1018.98 1019.13 1019.26 1019.40 1019.54 1019.67 1019.81 1019.95 1020.07 1020.17 1020.24 1020.28 1020.29 1020.26 1020.22 1020.15 1020.08 1020.02 1019.97 1019.93
1016.84 1016.94 1016.97 1016.96 1016.92 1016.88 1016.87 1016.90 1016.97 1017.08 1017.24 1017.43 1017.64 1017.86 1018.07 1018.28 1018.46 1018.63 1018.79 1018.94 1019.08 1019.23 1019.38 1019.53 1019.68 1019.82 1019.93 1020.01 1020.06 1020.06 1020.03 1019.96 1019.87 1019.77 1019.66 1019.57 1019.50 1019.45
1016.78 1016.88 1016.91 1016.90 1016.87 1016.85 1016.85 1016.89 1016.97 1017.09 1017.24 1017.42 1017.61 1017.80 1017.99 1018.16 1018.32 1018.47 1018.60 1018.74 1018.88 1019.02 1019.17 1019.32 1019.46 1019.58 1019.67 1019.73 1019.74 1019.70 1019.62 1019.51 1019.37 1019.23 1019.09 1018.98 1018.89 1018.83
Thickness
5740 5739 5738 5739 5738 5737 5735 5731 5724 5719 5718 5717 5716 5714 5711 5708 5705 5702 5699 5695 5693 5691 5688 5686 5684 5681 5679 5677 5676 5674 5672 5670 5668 5666 5664 5662 5659 5656
5736 5734 5733 5735 5734 5732 5731 5729 5726 5720 5715 5715 5711 5709 5705 5702 5697 5694 5691 5687 5684 5682 5680 5677 5674 5672 5670 5668 5667 5665 5663 5662 5659 5657 5655 5652 5650 5647
5732 5731 5729 5728 5728 5728 5726 5724 5722 5718 5711 5708 5706 5702 5697 5693 5690 5686 5683 5680 5676 5673 5670 5668 5665 5662 5660 5658 5656 5654 5653 5651 5649 5646 5644 5642 5639 5637
5727 5726 5725 5724 5722 5721 5720 5718 5716 5712 5708 5701 5696 5693 5689 5685 5682 5679 5676 5672 5668 5663 5660 5657 5654 5652 5649 5647 5645 5642 5640 5638 5636 5634 5632 5630 5627 5624
5723 5721 5720 5718 5716 5715 5713 5712 5710 5708 5704 5698 5692 5687 5683 5679 5674 5671 5667 5663 5660 5655 5651 5647 5644 5641 5638 5636 5633 5631 5629 5627 5624 5622 5619 5617 5614 5612
5717 5716 5714 5713 5710 5709 5707 5704 5703 5700 5696 5692 5686 5681 5676 5671 5668 5664 5659 5655 5652 5647 5642 5638 5634 5630 5628 5625 5622 5619 5617 5615 5612 5609 5607 5604 5602 5599
5711 5709 5707 5704 5701 5700 5700 5697 5695 5693 5690 5685 5680 5675 5670 5664 5662 5659 5653 5648 5643 5639 5635 5631 5627 5623 5619 5614 5611 5608 5605 5603 5600 5597 5594 5592 5589 5587
5705 5703 5700 5697 5693 5690 5687 5685 5684 5683 5681 5678 5674 5669 5663 5660 5656 5652 5646 5642 5636 5631 5628 5623 5619 5615 5611 5606 5601 5597 5594 5591 5589 5585 5582 5580 5577 5575
5698 5697 5696 5691 5688 5685 5680 5677 5675 5672 5670 5669 5666 5662 5658 5654 5649 5644 5638 5634 5628 5623 5619 5614 5610 5606 5602 5596 5591 5587 5583 5580 5577 5574 5571 5568 5565 5563
5691 5688 5685 5682 5680 5677 5675 5672 5668 5664 5661 5659 5656 5653 5649 5644 5640 5636 5630 5623 5618 5613 5610 5606 5601 5598 5594 5588 5582 5578 5574 5570 5567 5564 5561 5558 5555 5552
5683 5679 5677 5673 5668 5666 5666 5663 5659 5655 5649 5646 5643 5640 5636 5633 5629 5627 5622 5617 5612 5607 5601 5597 5593 5589 5585 5581 5575 5569 5565 5562 5558 5555 5551 5548 5545 5542
5673 5670 5664 5662 5658 5656 5657 5654 5650 5646 5643 5639 5634 5630 5627 5622 5619 5616 5615 5610 5606 5600 5593 5588 5585 5581 5578 5574 5569 5563 5558 5554 5550 5547 5544 5540 5538 5536
5667 5663 5657 5651 5648 5646 5645 5643 5639 5636 5634 5631 5627 5623 5618 5614 5609 5605 5602 5600 5596 5592 5586 5580 5577 5574 5571 5567 5564 5559 5554 5550 5546 5542 5538 5534 5531 5528
5657 5654 5647 5642 5639 5636 5634 5630 5627 5625 5626 5623 5619 5614 5609 5605 5599 5595 5590 5587 5583 5580 5575 5571 5569 5565 5563 5561 5558 5554 5549 5545 5541 5538 5534 5529 5526 5523
5646 5640 5636 5632 5630 5627 5622 5620 5618 5618 5616 5612 5608 5604 5600 5595 5590 5585 5581 5577 5574 5571 5567 5562 5561 5558 5555 5554 5551 5546 5542 5538 5535 5532 5529 5527 5524 5521
5635 5629 5625 5623 5621 5617 5614 5613 5611 5608 5606 5602 5598 5594 5590 5586 5582 5579 5576 5572 5569 5565 5559 5554 5551 5548 5547 5545 5542 5539 5536 5532 5529 5526 5524 5522 5519 5517
5627 5624 5621 5619 5616 5613 5610 5606 5603 5599 5596 5593 5589 5586 5582 5579 5575 5571 5567 5565 5562 5558 5554 5549 5544 5540 5537 5535 5533 5531 5529 5526 5524 5521 5516 5516 5515 5513
5618 5617 5614 5612 5609 5606 5603 5599 5595 5591 5588 5584 5581 5577 5574 5571 5568 5564 5560 5557 5554 5551 5547 5543 5539 5535 5532 5530 5524 5524 5522 5520 5518 5515 5512 5510 5509 5508
5609 5608 5605 5602 5600 5598 5595 5591 5587 5583 5578 5575 5572 5569 5566 5563 5559 5555 5551 5548 5546 5543 5540 5536 5533 5530 5527 5526 5523 5517 5516 5514 5512 5510 5507 5506 5504 5503
5601 5599 5595 5593 5590 5587 5585 5582 5579 5575 5570 5567 5564 5561 5557 5554 5550 5547 5544 5540 5538 5536 5532 5529 5526 5524 5522 5520 5518 5514 5508 5508 5506 5504 5503 5501 5500 5497
5592 5589 5586 5584 5580 5577 5574 5571 5568 5565 5562 5559 5557 5552 5550 5546 5543 5540 5537 5530 5529 5528 5526 5523 5520 5514 5514 5512 5511 5511 5508 5502 5500 5497 5497 5496 5495 5493
5583 5580 5577 5574 5571 5568 5564 5562 5559 5557 5554 5551 5548 5545 5542 5539 5536 5533 5531 5528 5525 5523 5521 5518 5514 5511 5509 5508 5507 5506 5503 5500 5496 5492 5490 5489 5489 5488
5574 5571 5568 5565 5562 5558 5556 5553 5551 5549 5546 5544 5541 5538 5536 5533 5530 5527 5525 5523 5520 5518 5515 5512 5509 5507 5506 5504 5502 5501 5499 5497 5495 5493 5490 5486 5482 5480